User: anonymous   Login
Location: Caltech
(34.1382°N, 118.1253°W)
Time: 01:23:13
(UTC-08:00)
Language:

SO-67 - Orbit

View from above orbital plane
View from above orbital plane
View from above satellite
View from above satellite

Ground track
Ground track

The orbit data is extracted from the following two-line orbital elements,

1 35870U 09049F   17057.73589012  .00007444  00000-0  12480-3 0  9997
2 35870  97.1088  75.5194 0004307  99.7267 348.9849 15.52108350416087
Epoch (UTC): 26 February 2017 17:39:40
Eccentricity: 0.0004307
inclination: 97.1088°
perigee height: 407 km
apogee height: 413 km
right ascension of ascending node: 75.5194°
argument of perigee: 99.7267°
revolutions per day: 15.52108350
mean anomaly at epoch: 348.9849°
orbit number at epoch: 41608

The dashed part of the orbit path shows where the satellite is in the earth's shadow,  

DLR